Showing default

YUNHAI 2-1C, 43911

Orbit data source: Space-Track

YUNHAI 2-1C, 43911 is a payload satellite owned by CASC (CN) in LEO that was launched on Sat, 29 Dec 2018 UTC via a CHANG ZHENG 2D/YZ-3 launch vehicle from the Jiuquan Satellite Launch Center, China (JSC). Payload-class satellites include a variety of spacecraft equipped with specific instruments for various scientific and technological missions. These include communications satellites like Starlink; space stations such as the ISS; scientific satellites like the Hubble; Earth observation satellites from companies like Planet Labs, Umbra, and HawkEye 360; GPS; miniature CubeSats for education and research; and military/defense satellites.

Loading next visibility...
Identifier
43911, 2018-112C
Orbit
LEO
Country
Flag of CNCN / PRC
Related business
Manufacturer
DFH Shenzhen
Mission
Operational Defense Meteo Radio Occ.
Bus & Motor
YH-2, Unknown motor
Mass
~100 kg wet, ~100 kg dry
Launch date (UTC)
2018-12-29 (7 years ago)
Launch vehicle
CHANG ZHENG 2D/YZ-3
Launch site
Jiuquan Satellite Launch Center, China (JSC)
Object type
Payload
Rocket body
Debris
Shape & HBR
Box + 2 Pan, 0.5 m
Radar Cross Section
0.166 m², Large (>1 m²)

Expand to show TLE details & history
Last TLE update: 9 hours ago

TLE from 9 hours ago
0 YUNHAI 2-1C
1 43911U 18112C   26035.06856225  .00000064  00000-0  88862-4 0  9997
2 43911  50.0096 192.4456 0000638  66.7461 293.3521 14.28931538372751
Epoch: 2026-02-04T01:38Z
TLE epoch observation values (Epoch: 2026-02-04T01:38:43.778Z)
Latitude
-0.00004°
Longitude
33.52271°
Altitude
795.655 km
Speed
7.457 km/s
True Right ascension
12h 49m 46s
True Declination
0° 00' 00"
Sunlit
Object was in full shadow at epoch
Visualization orbit readout
Latitude
Unknown
Longitude
Unknown
Altitude
Unknown
Speed
Unknown
Apparent Right ascension
Unknown
Apparent Declination
Unknown
Sunlit
N/A
Visualization observer readout
Local Sidereal Time
12:24:06
Azimuth
Unknown
Elevation
Unknown
Doppler factor
Unknown
Orbital elements
Apogee altitude
796.5 km
Perigee altitude
795.585 km
Semi-major axis
7,174.18 km
Eccentricity
0.00006
Inclination
50.0096°
RAAN
192.4456°
Arg. of periapsis
66.7461°
True anomaly
293.34539°
Mean anomaly
293.3521°
Eccentric anomaly
293.34874°
Mean motion
3.57178 °/min
Orbital period
100.79 mins
BSTAR
0.000088862
Loading maneuver chart data...
Computing Atmospheric mass density...
Loading historical data...
Loading historical data...
Loading historical data...
Loading historical data...
Loading historical data...
Loading historical data...
Loading historical data...

Documentation

Showing up to 5 results
|